Погода в Саутгемптоне

Великобритания     50°55′04″N   1°24′03″W
темп.,
°C
ветер,
м/с
пор.,
м/с
влажн.,
%
обл.,
%
осадки,
мм/ч
давл.,
гПа
погр.,
м
26 февраля, пт
пт2600:00+4ссз35900 0.0 1034124
03:00+3ссз23910 0.0 103542
06:00+2ссз22880 0.0 103631
09:00+5с12750 0.0 1037125
12:00+9ссз11610 0.0 1039672
15:00+10сз22580 0.0 10381106
18:00+6сз12750 0.0 103823
21:00+5с11861 0.0 104024
27 февраля, сб
сб2700:00+4ссз11870 0.0 104123
03:00+3ссз22880 0.0 104027
06:00+3ссв22910 0.0 104126
09:00+6св24840 0.0 1042160
12:00+10всв23650 0.0 1042691
15:00+11ссв33640 0.0 1040932
18:00+7ссв34780 0.0 104062
21:00+5св34840 0.0 104076
28 февраля, вс
вс2800:00+4св33880 0.0 104055
03:00+4св23910 0.0 103860
06:00+3св33920 0.0 103871
09:00+6св36840 0.0 1037245
12:00+10св45710 0.0 1037563
15:00+11св46680 0.0 1035742
18:00+7всв36810 0.0 1034130
21:00+5всв49850 0.0 1034229
1 марта, пн
пн100:00+3всв38920 0.0 1034186
03:00+3св38950 0.0 1032193
06:00+3всв38960 0.0 1031184
09:00+6в48840 0.0 1031300
12:00+11в58680 0.0 1031753
15:00+12в57650 0.0 1029947
18:00+7всв48850 0.0 1028203
21:00+4всв49920 0.0 1028229
2 марта, вт
вт200:00+4всв36940 0.0 1027116
03:00+3всв34930 0.0 102675
06:00+3всв33920 0.0 102657
09:00+6в34820 0.0 1026205
12:00+11юв45720 0.0 1026508
15:00+11юв46730 0.0 1024447
18:00+7юв358927 0.1 1024124
21:00+7вюв369348 0.0 1024128